FW7828 Weather Reports


time (UTC)temp
C
wind
direction
speed
KPH
gust
KPH
rain 1hr
cm
rain 24hr
cm
rain mn
cm
humidity
%
barometer
mb
20260905230222 26 11 1.6 1.6 0.18 0.03 0.03 87 1008.5
20260905225722 26 21 0.0 0.0 0.00 0.00 0.00 87 1008.7
20260905225217 26 11 1.6 1.6 0.00 0.00 0.00 88 1009.0
20260905224716 26 17 0.0 1.6 0.00 0.00 0.00 88 1008.8
20260905224212 26 9 3.2 3.2 0.00 0.00 0.00 89 1008.8
20260905223708 26 10 3.2 3.2 0.00 0.00 0.00 90 1008.8
20260905223205 26 16 3.2 3.2 0.00 0.00 0.00 90 1008.7
20260905222700 26 11 1.6 1.6 0.00 0.00 0.00 90 1008.3
20260905222159 26 9 3.2 3.2 0.00 0.00 0.00 89 1008.2
20260905221655 26 358 1.6 1.6 0.00 0.00 0.00 88 1008.2
20260905221152 27 12 3.2 3.2 0.00 0.00 0.00 87 1008.1
20260905220647 27 6 1.6 3.2 0.00 0.00 0.00 85 1007.9
20260905220143 28 22 3.2 3.2 0.00 0.00 0.00 82 1007.8
20260905215643 27 25 1.6 1.6 0.00 0.00 0.00 82 1007.7
20260905215138 27 26 1.6 1.6 0.00 0.00 0.00 83 1007.6
20260905214634 27 9 1.6 1.6 0.00 0.00 0.00 83 1007.5
20260905214129 28 12 0.0 0.0 0.00 0.00 0.00 84 1007.5
20260905213624 28 28 0.0 0.0 0.00 0.00 0.00 83 1007.7
20260905213120 28 0 1.6 1.6 0.00 0.00 0.00 82 1007.8
20260905212615 28 24 0.0 0.0 0.00 0.00 0.00 81 1007.9
20260905212114 28 12 1.6 1.6 0.00 0.00 0.00 81 1008.0
20260905211609 28 9 1.6 1.6 0.00 0.00 0.00 80 1007.8
20260905211105 28 15 1.6 1.6 0.00 0.00 0.00 81 1007.7
20260905210601 28 341 1.6 1.6 0.00 0.00 0.00 81 1007.6
20260905210055 28 21 0.0 1.6 0.00 0.00 0.00 83 1007.5
20260905205555 28 34 0.0 0.0 0.00 0.00 0.00 83 1007.8
20260905205055 29 23 0.0 1.6 0.00 0.00 0.00 82 1007.7
20260905204549 30 34 0.0 0.0 0.00 0.00 0.00 79 1007.5
20260905204044 30 36 1.6 1.6 0.00 0.00 0.00 78 1007.7
20260905203544 30 97 0.0 0.0 0.00 0.00 0.00 74 1007.5
20260905203040 31 103 0.0 1.6 0.00 0.00 0.00 73 1007.6
20260905202535 31 106 1.6 1.6 0.00 0.00 0.00 73 1007.6
20260905202030 31 87 0.0 1.6 0.00 0.00 0.00 75 1007.8
20260905201526 31 86 0.0 0.0 0.00 0.00 0.00 74 1007.8
20260905201025 30 117 1.6 1.6 0.00 0.00 0.00 74 1007.9
20260905200521 31 113 1.6 1.6 0.00 0.00 0.00 73 1007.8
20260905200020 31 115 1.6 1.6 0.00 0.00 0.00 74 1008.0
20260905195514 31 23 1.6 1.6 0.00 0.00 0.00 74 1008.2
20260905195010 31 104 1.6 1.6 0.00 0.00 0.00 74 1008.0
20260905194504 31 128 1.6 1.6 0.00 0.00 0.00 73 1008.3
20260905194003 30 2 0.0 0.0 0.00 0.00 0.00 76 1008.4
20260905193458 30 111 1.6 3.2 0.00 0.00 0.00 75 1008.4
20260905192953 31 24 0.0 0.0 0.00 0.00 0.00 75 1008.4
20260905192449 31 82 1.6 1.6 0.00 0.00 0.00 75 1008.6
20260905191944 31 90 1.6 1.6 0.00 0.00 0.00 75 1008.4
20260905191438 31 133 1.6 1.6 0.00 0.00 0.00 74 1008.7
20260905190937 31 103 0.0 1.6 0.00 0.00 0.00 74 1008.6
20260905190435 31 121 1.6 1.6 0.00 0.00 0.00 73 1008.7
20260905185934 31 145 0.0 1.6 0.00 0.00 0.00 74 1008.8
20260905185429 31 124 0.0 1.6 0.00 0.00 0.00 73 1008.9
20260905184928 31 150 3.2 3.2 0.00 0.00 0.00 72 1008.7
20260905184423 31 75 3.2 3.2 0.00 0.00 0.00 74 1008.9
20260905183921 31 134 1.6 3.2 0.00 0.00 0.00 75 1009.0
20260905183410 31 147 1.6 3.2 0.00 0.00 0.00 73 1009.0
20260905182905 30 164 3.2 3.2 0.00 0.00 0.00 74 1009.2
20260905182404 30 138 3.2 3.2 0.00 0.00 0.00 75 1009.3
20260905181901 30 133 3.2 3.2 0.00 0.00 0.00 74 1009.3
20260905181401 30 144 1.6 1.6 0.00 0.00 0.00 78 1009.2
20260905180859 30 125 1.6 1.6 0.00 0.00 0.00 76 1009.3
20260905180355 30 89 0.0 1.6 0.00 0.00 0.00 77 1009.3
20260905175849 30 120 4.8 4.8 0.00 0.00 0.00 76 1009.3
20260905175344 30 162 1.6 3.2 0.00 0.00 0.00 76 1009.2
20260905174839 30 164 0.0 1.6 0.00 0.00 0.00 78 1009.4
20260905174335 30 159 1.6 1.6 0.00 0.00 0.00 76 1009.6
20260905173830 30 158 4.8 4.8 0.00 0.00 0.00 76 1009.5
20260905173326 30 182 1.6 1.6 0.00 0.00 0.00 78 1009.7
20260905172826 30 153 1.6 1.6 0.00 0.00 0.00 76 1009.6
20260905172324 30 185 3.2 3.2 0.00 0.00 0.00 78 1009.7
20260905171821 29 160 1.6 3.2 0.00 0.00 0.00 79 1009.7
20260905171317 29 286 1.6 3.2 0.00 0.00 0.00 78 1009.8
20260905170813 30 225 3.2 3.2 0.00 0.00 0.00 79 1009.8
20260905170309 30 237 3.2 3.2 0.00 0.00 0.00 77 1009.9
20260905165808 29 43 0.0 0.0 0.00 0.00 0.00 78 1009.9
20260905165306 29 171 1.6 1.6 0.00 0.00 0.00 79 1009.9
20260905164803 29 174 4.8 4.8 0.00 0.00 0.00 78 1009.9
20260905164258 29 187 1.6 3.2 0.00 0.00 0.00 79 1010.0
20260905163754 29 173 3.2 3.2 0.00 0.00 0.00 78 1010.0
20260905163250 29 182 4.8 4.8 0.00 0.00 0.00 79 1010.3
20260905162746 28 278 1.6 1.6 0.00 0.00 0.00 80 1010.2
20260905162245 28 224 3.2 4.8 0.00 0.00 0.00 80 1010.0
20260905161740 29 225 1.6 1.6 0.00 0.00 0.00 79 1010.2
20260905161239 29 261 0.0 1.6 0.00 0.00 0.00 79 1010.1
20260905160737 28 188 1.6 3.2 0.00 0.00 0.00 80 1010.1
20260905160237 28 273 1.6 1.6 0.00 0.00 0.00 81 1010.2
20260905155732 28 257 1.6 3.2 0.00 0.00 0.00 80 1010.6
20260905155231 28 120 1.6 1.6 0.00 0.00 0.00 80 1010.7
20260905154725 28 174 3.2 3.2 0.00 0.00 0.00 80 1010.5
20260905154221 28 164 3.2 3.2 0.00 0.00 0.00 80 1010.8
20260905153716 28 287 1.6 3.2 0.00 0.00 0.00 81 1010.7
20260905153212 28 154 3.2 3.2 0.00 0.00 0.00 79 1010.6
20260905152707 28 182 1.6 3.2 0.00 0.00 0.00 80 1010.6
20260905152201 28 167 1.6 3.2 0.00 0.00 0.00 79 1010.6
20260905151701 28 265 3.2 3.2 0.00 0.00 0.00 82 1010.7
20260905151157 27 138 1.6 1.6 0.00 0.00 0.00 82 1010.6
20260905150652 27 164 3.2 3.2 0.00 0.00 0.00 82 1010.4
20260905150150 27 70 0.0 0.0 0.00 0.00 0.00 81 1010.4
20260905145649 27 125 1.6 1.6 0.00 0.00 0.00 82 1010.7
20260905145149 27 169 3.2 3.2 0.00 0.00 0.00 81 1010.7
20260905144643 27 215 1.6 1.6 0.00 0.00 0.00 83 1010.6
20260905144143 26 181 4.8 4.8 0.00 0.00 0.00 83 1010.6
20260905143637 26 184 1.6 3.2 0.00 0.00 0.00 85 1010.2
20260905143132 26 156 3.2 3.2 0.00 0.00 0.00 85 1010.2
20260905142630 26 313 0.0 0.0 0.00 0.00 0.00 86 1010.2
20260905142125 26 173 1.6 3.2 0.00 0.00 0.00 86 1010.3
20260905141624 26 175 1.6 1.6 0.00 0.00 0.00 86 1010.3
20260905141121 26 159 0.0 1.6 0.00 0.00 0.00 86 1010.3
20260905140616 26 156 0.0 1.6 0.00 0.00 0.00 86 1010.2
20260905140115 25 63 0.0 0.0 0.00 0.00 0.00 87 1010.2
20260905135611 25 84 0.0 1.6 0.00 0.00 0.00 86 1010.5
20260905135106 26 238 1.6 1.6 0.00 0.00 0.00 87 1010.5
20260905134601 25 180 3.2 3.2 0.00 0.00 0.00 86 1010.4
20260905134059 25 46 1.6 1.6 0.00 0.00 0.00 86 1010.6
20260905133555 26 71 1.6 3.2 0.00 0.00 0.00 86 1010.6
20260905133054 26 169 4.8 4.8 0.00 0.00 0.00 85 1010.3
20260905132554 26 176 1.6 3.2 0.00 0.00 0.00 86 1010.5
20260905132049 25 351 0.0 1.6 0.00 0.00 0.00 86 1010.4
20260905131545 25 145 0.0 1.6 0.00 0.00 0.00 85 1010.6
20260905131040 25 136 3.2 3.2 0.00 0.00 0.00 85 1010.6
20260905130539 25 169 1.6 1.6 0.00 0.00 0.00 86 1010.5
20260905130034 25 205 1.6 1.6 0.00 0.00 0.00 87 1010.4
20260905125533 25 192 0.0 0.0 0.00 0.00 0.00 87 1010.6
20260905125029 25 92 0.0 0.0 0.00 0.00 0.00 89 1010.4
20260905124526 24 73 0.0 0.0 0.00 0.00 0.00 90 1010.5
20260905124021 23 132 1.6 1.6 0.00 0.00 0.00 92 1010.6
20260905123517 23 319 0.0 0.0 0.00 0.00 0.00 94 1010.6
20260905123014 23 115 0.0 0.0 0.00 0.00 0.00 94 1010.6
20260905122513 23 293 0.0 0.0 0.00 0.00 0.00 95 1010.6
20260905122008 23 15 0.0 0.0 0.00 0.00 0.00 95 1010.5
20260905121503 23 344 0.0 0.0 0.00 0.00 0.00 95 1010.6
20260905121002 23 342 0.0 0.0 0.00 0.00 0.00 96 1010.6
20260905120456 22 290 0.0 0.0 0.00 0.00 0.00 95 1010.6
20260905115952 22 345 0.0 0.0 0.00 0.00 0.00 96 1010.5
20260905115451 22 345 0.0 0.0 0.00 0.00 0.00 95 1010.7
20260905114946 22 345 0.0 0.0 0.00 0.00 0.00 95 1010.5
20260905114446 22 354 0.0 0.0 0.00 0.00 0.00 95 1010.5
20260905113944 22 301 0.0 0.0 0.00 0.00 0.00 95 1010.3
20260905113440 22 348 0.0 0.0 0.00 0.00 0.00 95 1010.3
20260905112935 22 48 0.0 0.0 0.00 0.00 0.00 95 1010.1
20260905112431 22 51 0.0 0.0 0.00 0.00 0.00 95 1010.2
20260905111926 22 51 0.0 0.0 0.00 0.00 0.00 95 1010.1
20260905111426 22 51 0.0 0.0 0.00 0.00 0.00 95 1010.0
20260905110920 22 51 0.0 0.0 0.00 0.00 0.00 95 1010.0
20260905110414 22 53 0.0 0.0 0.00 0.00 0.00 95 1009.9
20260905105909 22 55 0.0 0.0 0.00 0.00 0.00 95 1010.0
20260905105409 22 53 0.0 0.0 0.00 0.00 0.00 95 1009.7
20260905104908 22 45 0.0 0.0 0.00 0.00 0.00 95 1009.7
20260905104359 22 78 0.0 0.0 0.00 0.00 0.00 95 1009.6
20260905103858 22 78 0.0 0.0 0.00 0.00 0.00 95 1009.5
20260905103354 22 78 0.0 0.0 0.00 0.00 0.00 95 1009.6
20260905102850 22 63 0.0 0.0 0.00 0.00 0.00 94 1009.4
20260905102347 22 57 0.0 0.0 0.00 0.00 0.00 94 1009.5
20260905101846 22 37 0.0 0.0 0.00 0.00 0.00 94 1009.2
20260905101344 22 51 0.0 0.0 0.00 0.00 0.00 94 1009.4
20260905100839 22 51 0.0 0.0 0.00 0.00 0.00 94 1009.3
20260905100336 22 40 0.0 0.0 0.00 0.00 0.00 94 1009.4
20260905095834 22 43 0.0 0.0 0.00 0.00 0.00 94 1009.4
20260905095329 22 45 0.0 0.0 0.00 0.00 0.00 93 1009.3
20260905094823 22 33 0.0 0.0 0.00 0.00 0.00 93 1009.2
20260905094319 22 40 0.0 0.0 0.00 0.00 0.00 93 1009.2
20260905093818 22 42 0.0 0.0 0.00 0.00 0.00 93 1009.2
20260905093314 22 45 0.0 0.0 0.00 0.00 0.00 93 1009.2
20260905092810 22 39 0.0 0.0 0.00 0.00 0.00 93 1009.2
20260905092309 22 58 0.0 0.0 0.00 0.00 0.00 92 1009.1
20260905091805 22 39 1.6 1.6 0.00 0.00 0.00 92 1009.2
20260905091304 22 119 0.0 0.0 0.00 0.00 0.00 92 1009.3
20260905090803 22 78 0.0 0.0 0.00 0.00 0.00 92 1009.2
20260905090259 22 6 1.6 1.6 0.00 0.00 0.00 92 1009.5
20260905085759 22 32 0.0 0.0 0.00 0.00 0.00 92 1009.3
20260905085259 22 320 0.0 1.6 0.00 0.00 0.00 91 1009.1
20260905084754 22 191 0.0 0.0 0.00 0.00 0.00 91 1008.8
20260905084254 22 244 0.0 0.0 0.00 0.00 0.00 90 1009.0
20260905083748 22 165 1.6 1.6 0.00 0.00 0.00 90 1008.9
20260905083243 22 185 1.6 3.2 0.00 0.00 0.00 91 1009.1
20260905082739 22 82 0.0 0.0 0.00 0.00 0.00 91 1009.1
20260905082236 22 63 0.0 0.0 0.00 0.00 0.00 90 1009.0
20260905081736 22 93 0.0 0.0 0.00 0.00 0.00 90 1009.0
20260905081231 22 352 1.6 1.6 0.00 0.00 0.00 90 1009.0
20260905080731 22 55 0.0 0.0 0.00 0.00 0.00 90 1009.2
20260905080231 22 103 1.6 1.6 0.00 0.00 0.00 90 1009.2
20260905075730 22 73 0.0 0.0 0.00 0.00 0.00 91 1009.3
20260905075229 22 59 0.0 0.0 0.00 0.00 0.00 91 1009.2
20260905074728 22 31 0.0 0.0 0.00 0.00 0.00 92 1009.5
20260905074224 22 123 0.0 0.0 0.00 0.00 0.00 92 1009.2
20260905073719 22 130 4.8 4.8 0.00 0.00 0.00 92 1009.3
20260905073215 22 151 0.0 1.6 0.00 0.00 0.00 92 1009.3
20260905072714 22 96 0.0 0.0 0.00 0.00 0.00 92 1009.5
20260905072209 22 36 0.0 0.0 0.00 0.00 0.00 92 1009.2
20260905071706 22 339 0.0 1.6 0.00 0.00 0.00 92 1009.1
20260905071202 22 98 0.0 0.0 0.00 0.00 0.00 92 1009.1
20260905070656 22 187 1.6 1.6 0.00 0.00 0.00 92 1008.9
20260905070152 22 26 0.0 0.0 0.00 0.00 0.00 92 1009.0
20260905065651 22 224 0.0 0.0 0.00 0.00 0.00 92 1009.0
20260905065145 22 63 0.0 0.0 0.00 0.00 0.00 92 1008.9
20260905064640 22 30 0.0 0.0 0.00 0.00 0.00 92 1009.1
20260905064136 22 45 0.0 0.0 0.00 0.00 0.00 92 1009.3
20260905063634 22 338 0.0 0.0 0.00 0.00 0.00 91 1009.2
20260905063131 22 299 1.6 1.6 0.00 0.00 0.00 91 1009.3
20260905062627 22 70 0.0 0.0 0.00 0.00 0.00 91 1009.3
20260905062126 22 272 1.6 1.6 0.00 0.00 0.00 91 1009.4
20260905061621 22 99 1.6 1.6 0.00 0.00 0.00 91 1009.5
20260905061120 22 218 0.0 0.0 0.00 0.00 0.00 91 1009.4
20260905060616 22 41 0.0 0.0 0.00 0.00 0.00 90 1009.6
20260905060113 23 70 0.0 1.6 0.00 0.00 0.00 89 1009.5
20260905055611 23 31 1.6 3.2 0.00 0.00 0.00 88 1009.6
20260905055106 23 43 0.0 0.0 0.00 0.00 0.00 87 1009.5
20260905054602 23 269 0.0 0.0 0.00 0.00 0.00 87 1009.7
20260905054057 22 161 4.8 4.8 0.00 0.00 0.00 89 1010.0
20260905053556 22 72 0.0 0.0 0.00 0.00 0.00 91 1010.1
20260905053052 22 251 0.0 1.6 0.00 0.00 0.00 92 1010.1
20260905052551 22 62 1.6 1.6 0.00 0.00 0.00 92 1010.4
20260905052046 22 181 0.0 0.0 0.00 0.00 0.00 93 1010.2
20260905051541 22 155 0.0 0.0 0.00 0.00 0.00 93 1010.6
20260905051038 22 221 0.0 0.0 0.00 0.00 0.00 93 1010.4
20260905050533 22 161 3.2 3.2 0.00 0.00 0.00 94 1010.4
20260905050031 22 142 1.6 3.2 0.00 0.00 0.00 95 1010.4
20260905045525 22 43 1.6 1.6 0.00 0.00 0.00 95 1010.8
20260905045021 22 78 0.0 0.0 0.00 0.00 0.00 95 1010.8
20260905044520 22 130 1.6 3.2 0.00 0.00 0.00 96 1010.7
20260905044015 22 345 0.0 1.6 0.00 0.00 0.00 95 1010.5
20260905043514 22 351 1.6 3.2 0.00 0.00 0.00 95 1010.4
20260905043009 22 57 0.0 0.0 0.00 0.00 0.00 95 1010.6
20260905042508 23 316 3.2 3.2 0.00 0.00 0.00 95 1010.4
20260905041958 23 39 0.0 1.6 0.00 0.00 0.00 95 1010.6
20260905041453 23 131 3.2 4.8 0.00 0.00 0.00 95 1010.5
20260905040949 23 350 1.6 1.6 0.00 0.00 0.00 95 1010.4
20260905040448 23 189 1.6 3.2 0.00 0.00 0.00 95 1010.6
20260905035947 23 43 0.0 0.0 0.00 0.71 0.71 95 1010.9
20260905035442 23 288 0.0 1.6 0.00 0.71 0.71 95 1010.8
20260905034940 23 253 3.2 4.8 0.00 0.71 0.71 96 1010.8
20260905034435 23 172 6.4 8.0 0.00 0.71 0.71 96 1011.2
20260905033933 23 291 1.6 1.6 0.00 0.71 0.71 96 1011.1
20260905033428 23 273 0.0 0.0 0.00 0.71 0.71 96 1010.7
20260905032928 23 331 0.0 1.6 0.00 0.71 0.71 96 1010.7
20260905032423 23 237 3.2 3.2 0.00 0.71 0.71 96 1010.6
20260905031918 24 189 0.0 1.6 0.00 0.71 0.71 96 1010.6
20260905031414 24 275 1.6 1.6 0.00 0.71 0.71 96 1010.2
20260905030909 24 320 1.6 1.6 0.00 0.71 0.71 96 1010.1
20260905030400 24 88 0.0 0.0 0.00 0.71 0.71 96 1009.9
20260905025858 24 195 0.0 0.0 0.00 0.71 0.71 96 1010.1
20260905025354 24 134 0.0 0.0 0.00 0.71 0.71 96 1010.2
20260905024850 24 58 0.0 0.0 0.00 0.71 0.71 96 1010.1
20260905024350 23 352 0.0 0.0 0.00 0.71 0.71 96 1010.2
20260905023846 23 29 0.0 0.0 0.00 0.71 0.71 96 1010.7
20260905023341 23 302 0.0 1.6 0.00 0.71 0.71 96 1011.1
20260905022839 23 325 0.0 0.0 0.00 0.71 0.71 96 1010.9
20260905022335 23 340 0.0 0.0 0.00 0.71 0.71 96 1011.1
20260905021830 24 295 1.6 1.6 0.00 0.71 0.71 96 1011.2
20260905021325 24 181 1.6 3.2 0.13 0.71 0.71 96 1011.7
20260905020820 23 275 0.0 0.0 0.43 0.71 0.71 96 1012.4
20260905020315 23 86 0.0 0.0 0.61 0.69 0.69 96 1012.3
20260905015814 23 125 1.6 1.6 0.61 0.66 0.66 95 1013.0
20260905015314 23 126 1.6 1.6 0.43 0.61 0.61 95 1013.6
20260905014813 23 56 0.0 0.0 0.18 0.53 0.53 95 1014.0
20260905014309 22 258 0.0 1.6 0.30 0.53 0.53 94 1014.2
20260905013804 22 98 3.2 4.8 0.13 0.51 0.51 94 1014.3
20260905013300 22 207 0.0 0.0 0.00 0.48 0.48 94 1014.1
20260905012755 22 116 0.0 0.0 0.00 0.48 0.48 94 1014.3
20260905012251 22 338 0.0 1.6 0.18 0.48 0.48 94 1014.1
20260905011747 22 47 1.6 1.6 0.18 0.48 0.48 94 1014.3
20260905011243 22 34 0.0 1.6 0.18 0.46 0.46 94 1014.1
20260905010737 23 44 1.6 3.2 0.30 0.46 0.46 94 1014.0
20260905010232 23 82 1.6 1.6 0.30 0.43 0.43 94 1013.6
20260905005729 23 49 4.8 4.8 0.30 0.41 0.41 94 1013.6
20260905005225 23 35 3.2 3.2 0.30 0.38 0.38 93 1013.6
20260905004719 23 3 6.4 9.7 0.30 0.36 0.36 93 1013.7
20260905004214 23 129 1.6 3.2 0.13 0.33 0.33 92 1013.4
20260905003714 23 127 0.0 1.6 0.13 0.33 0.33 93 1013.1
20260905003210 23 97 3.2 4.8 0.00 0.30 0.30 93 1013.0
20260905002706 23 242 1.6 3.2 0.18 0.30 0.30 93 1013.3
20260905002205 23 325 1.6 3.2 0.18 0.30 0.30 94 1012.8
20260905001701 23 60 0.0 0.0 0.00 0.28 0.28 93 1012.7
20260905001159 23 55 1.6 1.6 0.00 0.28 0.28 93 1012.6
20260905000655 24 30 3.2 3.2 0.30 0.28 0.28 92 1012.6
20260905000151 24 14 4.8 4.8 0.71 0.28 0.28 92 1012.8
20260904235651 24 36 4.8 8.0 0.43 0.23 0.23 92 1012.9
20260904235150 24 36 3.2 3.2 0.36 0.15 0.15 92 1013.1
20260904234645 25 43 1.6 1.6 0.48 0.15 0.15 92 1013.0
20260904234141 25 32 3.2 3.2 0.13 0.10 0.10 93 1013.4
20260904233637 25 63 4.8 4.8 0.00 0.08 0.08 95 1013.2
20260904233132 25 335 1.6 1.6 0.00 0.08 0.08 95 1011.4
20260904232629 25 257 1.6 1.6 0.00 0.08 0.08 95 1011.5
20260904232125 25 4 0.0 0.0 0.00 0.08 0.08 95 1011.6
20260904231620 25 290 0.0 0.0 0.00 0.08 0.08 94 1011.3
20260904231115 25 339 3.2 3.2 0.00 0.08 0.08 94 1011.5